View from above orbital plane
|
View from above satellite
|
Ground track
|
The orbit data is extracted from the following two-line orbital elements,
1 14453U 83109B 21016.88432219 .00000015 00000-0 10498-5 0 9998
2 14453 81.1649 228.6701 0104047 234.2233 124.9239 14.24742272933942
Epoch (UTC): | 16 January 2021 21:13:25 |
Eccentricity: | 0.0104047 |
inclination: | 81.1649° |
perigee height: | 734 km |
apogee height: | 884 km |
right ascension of ascending node: | 228.6701° |
argument of perigee: | 234.2233° |
revolutions per day: | 14.24742272 |
mean anomaly at epoch: | 124.9239° |
orbit number at epoch: | 93394 |
The dashed part of the orbit path shows where the satellite is in the earth's shadow,
|
|